Location: Rowland
(34.5359°N, 79.2929°W)
Time: 18:41:34
(UTC+00:00)

Transit 2A - Pass Details

Date: 05 October 2022
Orbit: 598 x 959 km, 66.7° (Epoch: 02 December)

Event Time Altitude Azimuth Distance (km) Brightness Sun altitude
Rises 11:30:11 0° 352° (N) 2,985 8.9 2.3°
Reaches altitude 10° 11:33:16 10° 14° (NNE) 2,131 8.4 2.9°
Maximum altitude 11:36:17 16° 53° (NE) 1,802 8.7 3.5°
Drops below altitude 10° 11:39:28 10° 92° (E) 2,265 11.0 4.2°
Sets 11:42:52 0° 113° (ESE) 3,270 11.3 4.9°
